Location: Unspecified
(0.0000°N, 0.0000°E)
Time: 00:54:37
(UTC+01:00)

Meteor PRIRODA - Visible Passes

Search period start: 22 December 2014 00:00
Search period end: 01 January 2015 00:00
Orbit: 507 x 529 km, 97.3° (Epoch: 20 December)

Date Brightness Start Highest point End Pass type
(mag) Time Alt. Az. Time Alt. Az. Time Alt. Az.
22 Dec 3.7 05:48:27 10° N 05:52:12 56° W 05:55:57 10° SSW visible
23 Dec 3.7 05:34:23 10° NNE 05:38:11 83° E 05:42:00 10° S visible
24 Dec 4.7 05:20:29 10° NNE 05:24:10 47° E 05:27:50 10° S visible
25 Dec 5.8 05:06:50 10° NE 05:10:07 28° E 05:13:24 10° SSE visible
26 Dec 6.6 04:53:32 10° ENE 04:56:04 17° ESE 04:58:35 10° SE visible
26 Dec 5.4 06:27:52 10° NW 06:29:54 14° WNW 06:31:56 10° WSW visible
27 Dec 7.1 04:41:31 10° E 04:42:00 10° ESE 04:42:28 10° ESE visible
27 Dec 4.9 06:12:48 10° NNW 06:15:50 23° W 06:18:52 10° SW visible
28 Dec 4.2 05:58:12 10° N 06:01:44 38° W 06:05:17 10° SSW visible
29 Dec 3.6 05:43:51 10° N 05:47:38 66° W 05:51:24 10° SSW visible
30 Dec 3.9 05:29:43 10° NNE 05:33:30 70° E 05:37:16 10° S visible
31 Dec 5.1 05:15:48 10° NNE 05:19:21 39° E 05:22:55 10° S visible
